Zurück zum Katalog

SL-8 R/B

AktivLEO
NORAD 15483·ROCKET BODY·🇷🇺 Russia

Gestartet Jan 17, 1985 von Plesetsk Cosmodrome

Loading…

Nächste Überflüge (nächste 24 Stunden)

TLE

AktuellSource: Space-Track

Epoche: Sep 14, 2026, 01:37 UTC

1 15483U 85006B   26257.06740686  .00000025  00000-0  16977-4 0  9990
2 15483  74.0432 274.5006 0017533 145.9444 244.9390 14.37863300181104

Verfolge SL-8 R/B in Echtzeit mit AllMySat

Download on the App Store